Location: Unspecified
(48.5670°N, 0.0000°E)
Time: 10:51:55
(UTC+00:00)

Tiros 1 - Pass Details

Date: 29 October 2020
Orbit: 630 x 664 km, 48.4° (Epoch: 03 December)

Event Time Altitude Azimuth Distance (km) Brightness Sun altitude
Exits shadow 02:59:13 14° 94° (E) 1,739 9.9 -36.8°
Drops below altitude 10° 03:00:04 10° 88° (E) 2,009 10.3 -36.7°
Sets 03:02:38 0° 76° (ENE) 2,919 11.5 -36.3°
